| time (UTC) | temp F | wind direction | speed knots | gust knots | rain 1hr in | rain 24hr in | rain mn in | humidity % | barometer mb |
| 20260504001738 | 75 | 21 | 0.9 | 3.5 | 0.00 | 0.00 | 0.00 | 45 | 1010.3 |
| 20260504001233 | 76 | 315 | 0.9 | 3.5 | 0.00 | 0.00 | 0.00 | 44 | 1010.3 |
| 20260504000721 | 76 | 306 | 0.9 | 4.3 | 0.00 | 0.00 | 0.00 | 44 | 1010.3 |
| 20260504000219 | 75 | 304 | 0.9 | 4.3 | 0.00 | 0.00 | 0.00 | 44 | 1010.4 |
| 20260503235717 | 75 | 302 | 0.9 | 4.3 | 0.00 | 0.00 | 0.00 | 46 | 1010.5 |
| 20260503235217 | 75 | 355 | 1.7 | 4.3 | 0.00 | 0.00 | 0.00 | 46 | 1010.5 |
| 20260503234717 | 75 | 348 | 1.7 | 2.6 | 0.00 | 0.00 | 0.00 | 44 | 1010.6 |
| 20260503234218 | 76 | 221 | 1.7 | 3.5 | 0.00 | 0.00 | 0.00 | 44 | 1010.6 |
| 20260503233717 | 76 | 308 | 1.7 | 5.2 | 0.00 | 0.00 | 0.00 | 44 | 1010.6 |
| 20260503232718 | 76 | 290 | 1.7 | 5.2 | 0.00 | 0.00 | 0.00 | 43 | 1010.9 |
| 20260503232216 | 76 | 306 | 1.7 | 3.5 | 0.00 | 0.00 | 0.00 | 44 | 1011.0 |
| 20260503231219 | 76 | 235 | 1.7 | 5.2 | 0.00 | 0.00 | 0.00 | 44 | 1011.1 |
| 20260503230213 | 76 | 84 | 1.7 | 5.2 | 0.00 | 0.00 | 0.00 | 41 | 1011.2 |
| 20260503224712 | 76 | 285 | 2.6 | 7.8 | 0.00 | 0.00 | 0.00 | 43 | 1011.5 |
| 20260503224212 | 75 | 345 | 2.6 | 7.8 | 0.00 | 0.00 | 0.00 | 42 | 1011.5 |
| 20260503223711 | 75 | 286 | 2.6 | 7.0 | 0.00 | 0.00 | 0.00 | 44 | 1011.6 |
| 20260503222709 | 75 | 261 | 1.7 | 8.7 | 0.00 | 0.00 | 0.00 | 45 | 1011.7 |
| 20260503222209 | 74 | 249 | 2.6 | 8.7 | 0.00 | 0.00 | 0.00 | 45 | 1011.7 |
| 20260503221709 | 75 | 324 | 1.7 | 7.8 | 0.00 | 0.00 | 0.00 | 46 | 1011.8 |
| 20260503221209 | 75 | 5 | 1.7 | 5.2 | 0.00 | 0.00 | 0.00 | 46 | 1011.9 |
| 20260503215710 | 74 | 314 | 2.6 | 7.0 | 0.00 | 0.00 | 0.00 | 42 | 1012.0 |
| 20260503215210 | 74 | 318 | 2.6 | 7.0 | 0.00 | 0.00 | 0.00 | 45 | 1012.1 |
| 20260503214210 | 74 | 355 | 1.7 | 5.2 | 0.00 | 0.00 | 0.00 | 43 | 1012.1 |
| 20260503213708 | 74 | 314 | 2.6 | 7.0 | 0.00 | 0.00 | 0.00 | 43 | 1012.2 |
| 20260503213207 | 74 | 355 | 2.6 | 7.0 | 0.00 | 0.00 | 0.00 | 45 | 1012.2 |
| 20260503212708 | 74 | 304 | 2.6 | 7.0 | 0.00 | 0.00 | 0.00 | 45 | 1012.3 |
| 20260503212207 | 73 | 290 | 1.7 | 5.2 | 0.00 | 0.00 | 0.00 | 45 | 1012.3 |
| 20260503211206 | 74 | 290 | 2.6 | 7.8 | 0.00 | 0.00 | 0.00 | 46 | 1012.3 |
| 20260503210201 | 73 | 317 | 2.6 | 7.0 | 0.00 | 0.00 | 0.00 | 47 | 1012.5 |
| 20260503205201 | 72 | 310 | 2.6 | 7.0 | 0.00 | 0.00 | 0.00 | 47 | 1012.6 |
| 20260503204659 | 72 | 317 | 1.7 | 6.1 | 0.00 | 0.00 | 0.00 | 47 | 1012.6 |
| 20260503204200 | 72 | 336 | 2.6 | 6.1 | 0.00 | 0.00 | 0.00 | 47 | 1012.7 |
| 20260503203700 | 72 | 273 | 2.6 | 6.1 | 0.00 | 0.00 | 0.00 | 47 | 1012.7 |
| 20260503203158 | 72 | 324 | 2.6 | 6.1 | 0.00 | 0.00 | 0.00 | 48 | 1012.8 |
| 20260503202658 | 72 | 329 | 1.7 | 4.3 | 0.00 | 0.00 | 0.00 | 49 | 1012.9 |
| 20260503201655 | 72 | 327 | 2.6 | 5.2 | 0.00 | 0.00 | 0.00 | 46 | 1013.0 |
| 20260503201155 | 72 | 339 | 1.7 | 5.2 | 0.00 | 0.00 | 0.00 | 47 | 1013.0 |
| 20260503200655 | 72 | 338 | 2.6 | 6.1 | 0.00 | 0.00 | 0.00 | 48 | 1013.1 |
| 20260503200155 | 71 | 57 | 2.6 | 8.7 | 0.00 | 0.00 | 0.00 | 48 | 1013.2 |
| 20260503195653 | 71 | 319 | 2.6 | 8.7 | 0.00 | 0.00 | 0.00 | 50 | 1013.2 |
| 20260503194653 | 71 | 309 | 2.6 | 7.0 | 0.00 | 0.00 | 0.00 | 51 | 1013.3 |
| 20260503194153 | 70 | 295 | 2.6 | 7.0 | 0.00 | 0.00 | 0.00 | 51 | 1013.3 |
| 20260503193653 | 70 | 347 | 1.7 | 7.0 | 0.00 | 0.00 | 0.00 | 52 | 1013.4 |
| 20260503193151 | 69 | 319 | 1.7 | 4.3 | 0.00 | 0.00 | 0.00 | 54 | 1013.5 |
| 20260503192649 | 69 | 286 | 1.7 | 3.5 | 0.00 | 0.00 | 0.00 | 53 | 1013.6 |
| 20260503191644 | 69 | 300 | 1.7 | 5.2 | 0.00 | 0.00 | 0.00 | 55 | 1013.7 |
| 20260503191144 | 70 | 344 | 2.6 | 7.0 | 0.00 | 0.00 | 0.00 | 55 | 1013.8 |
| 20260503190644 | 70 | 329 | 2.6 | 7.0 | 0.00 | 0.00 | 0.00 | 51 | 1013.8 |
| 20260503190141 | 70 | 277 | 2.6 | 7.0 | 0.00 | 0.00 | 0.00 | 51 | 1013.9 |
| 20260503185639 | 70 | 5 | 1.7 | 5.2 | 0.00 | 0.00 | 0.00 | 51 | 1013.9 |
| 20260503185138 | 70 | 25 | 1.7 | 6.1 | 0.00 | 0.00 | 0.00 | 52 | 1013.9 |
| 20260503184639 | 70 | 27 | 1.7 | 6.1 | 0.00 | 0.00 | 0.00 | 52 | 1014.0 |
| 20260503184137 | 70 | 340 | 1.7 | 6.1 | 0.00 | 0.00 | 0.00 | 51 | 1014.1 |
| 20260503183637 | 70 | 309 | 1.7 | 5.2 | 0.00 | 0.00 | 0.00 | 51 | 1014.1 |
| 20260503181640 | 69 | 254 | 1.7 | 5.2 | 0.00 | 0.00 | 0.00 | 53 | 1014.2 |
| 20260503180640 | 69 | 292 | 1.7 | 6.1 | 0.00 | 0.00 | 0.00 | 56 | 1014.2 |
| 20260503180141 | 68 | 325 | 1.7 | 6.1 | 0.00 | 0.00 | 0.00 | 55 | 1014.2 |
| 20260503175634 | 68 | 294 | 1.7 | 5.2 | 0.00 | 0.00 | 0.00 | 57 | 1014.3 |
| 20260503175125 | 67 | 5 | 0.9 | 5.2 | 0.00 | 0.00 | 0.00 | 59 | 1014.3 |
| 20260503174122 | 66 | 284 | 1.7 | 3.5 | 0.00 | 0.00 | 0.00 | 60 | 1014.4 |
| 20260503172619 | 65 | 294 | 1.7 | 3.5 | 0.00 | 0.00 | 0.00 | 60 | 1014.5 |
| 20260503172120 | 65 | 272 | 1.7 | 4.3 | 0.00 | 0.00 | 0.00 | 61 | 1014.5 |
| 20260503171618 | 65 | 318 | 1.7 | 3.5 | 0.00 | 0.00 | 0.00 | 61 | 1014.4 |
| 20260503171120 | 65 | 289 | 1.7 | 4.3 | 0.00 | 0.00 | 0.00 | 60 | 1014.4 |
| 20260503170620 | 65 | 277 | 1.7 | 4.3 | 0.00 | 0.00 | 0.00 | 60 | 1014.4 |
| 20260503170117 | 65 | 300 | 1.7 | 4.3 | 0.00 | 0.00 | 0.00 | 58 | 1014.5 |
| 20260503150605 | 62 | 310 | 1.7 | 3.5 | 0.00 | 0.00 | 0.00 | 61 | 1014.6 |
| 20260503150105 | 61 | 308 | 1.7 | 3.5 | 0.00 | 0.00 | 0.00 | 62 | 1014.6 |
| 20260503131044 | 58 | 73 | 0.9 | 3.5 | 0.00 | 0.00 | 0.00 | 66 | 1014.4 |
| 20260503130544 | 58 | 92 | 0.9 | 3.5 | 0.00 | 0.00 | 0.00 | 66 | 1014.4 |
| 20260503110507 | 58 | 211 | 0.0 | 1.7 | 0.00 | 0.00 | 0.00 | 62 | 1014.7 |
| 20260503081454 | 64 | 39 | 1.7 | 6.1 | 0.00 | 0.00 | 0.00 | 49 | 1014.7 |
| 20260503072444 | 65 | 74 | 2.6 | 7.0 | 0.00 | 0.00 | 0.00 | 48 | 1014.7 |
| 20260503071944 | 65 | 69 | 2.6 | 6.1 | 0.00 | 0.00 | 0.00 | 48 | 1014.7 |
| 20260503071443 | 65 | 62 | 1.7 | 6.1 | 0.00 | 0.01 | 0.00 | 48 | 1014.7 |
| 20260503070940 | 65 | 88 | 1.7 | 6.1 | 0.00 | 0.01 | 0.00 | 49 | 1014.7 |
| 20260503070440 | 65 | 90 | 2.6 | 6.1 | 0.00 | 0.01 | 0.00 | 48 | 1014.7 |
| 20260503054430 | 66 | 118 | 2.6 | 6.1 | 0.00 | 0.01 | 0.01 | 47 | 1014.5 |
| 20260503053926 | 66 | 58 | 2.6 | 5.2 | 0.00 | 0.01 | 0.01 | 48 | 1014.5 |
| 20260503053426 | 66 | 55 | 2.6 | 7.0 | 0.00 | 0.01 | 0.01 | 48 | 1014.5 |
| 20260503052926 | 66 | 152 | 2.6 | 7.0 | 0.00 | 0.01 | 0.01 | 48 | 1014.6 |
| 20260503052427 | 66 | 57 | 2.6 | 7.0 | 0.00 | 0.01 | 0.01 | 48 | 1014.5 |
| 20260503051426 | 66 | 61 | 1.7 | 5.2 | 0.00 | 0.01 | 0.01 | 48 | 1014.4 |
| 20260503050925 | 66 | 61 | 2.6 | 6.1 | 0.00 | 0.01 | 0.01 | 48 | 1014.4 |
| 20260503045420 | 66 | 79 | 1.7 | 7.0 | 0.00 | 0.01 | 0.01 | 48 | 1014.4 |
| 20260503044917 | 66 | 70 | 1.7 | 4.3 | 0.00 | 0.01 | 0.01 | 48 | 1014.5 |
| 20260503044415 | 67 | 100 | 1.7 | 4.3 | 0.00 | 0.01 | 0.01 | 48 | 1014.4 |
| 20260503043413 | 67 | 84 | 1.7 | 7.8 | 0.00 | 0.01 | 0.01 | 48 | 1014.3 |
| 20260503042911 | 67 | 58 | 1.7 | 7.8 | 0.00 | 0.01 | 0.01 | 48 | 1014.3 |
| 20260503042407 | 67 | 321 | 1.7 | 6.1 | 0.00 | 0.01 | 0.01 | 47 | 1014.2 |
| 20260503041402 | 67 | 49 | 1.7 | 6.1 | 0.00 | 0.01 | 0.01 | 48 | 1014.2 |
| 20260503040902 | 67 | 64 | 1.7 | 5.2 | 0.00 | 0.01 | 0.01 | 47 | 1014.1 |
| 20260503040402 | 67 | 270 | 1.7 | 5.2 | 0.00 | 0.01 | 0.01 | 48 | 1014.1 |
| 20260503035902 | 67 | 327 | 1.7 | 3.5 | 0.00 | 0.01 | 0.01 | 48 | 1014.0 |
| 20260503035402 | 67 | 69 | 1.7 | 3.5 | 0.00 | 0.01 | 0.01 | 49 | 1013.9 |
| 20260503034902 | 67 | 42 | 1.7 | 3.5 | 0.00 | 0.01 | 0.01 | 49 | 1013.8 |
| 20260503034402 | 67 | 327 | 1.7 | 6.1 | 0.00 | 0.01 | 0.01 | 49 | 1013.8 |
| 20260503033903 | 67 | 267 | 1.7 | 7.8 | 0.00 | 0.01 | 0.01 | 49 | 1013.7 |
| 20260503032905 | 67 | 94 | 0.9 | 3.5 | 0.00 | 0.01 | 0.01 | 51 | 1013.6 |
| 20260503032405 | 67 | 69 | 0.9 | 3.5 | 0.00 | 0.01 | 0.01 | 51 | 1013.5 |
| 20260503031905 | 68 | 317 | 1.7 | 6.1 | 0.00 | 0.01 | 0.01 | 51 | 1013.6 |
| 20260503031405 | 68 | 211 | 1.7 | 6.1 | 0.00 | 0.01 | 0.01 | 51 | 1013.4 |
| 20260503030905 | 68 | 340 | 1.7 | 6.1 | 0.00 | 0.01 | 0.01 | 50 | 1013.4 |
| 20260503030404 | 68 | 355 | 1.7 | 6.1 | 0.00 | 0.01 | 0.01 | 50 | 1013.4 |
| 20260503025903 | 68 | 294 | 1.7 | 4.3 | 0.00 | 0.01 | 0.01 | 50 | 1013.3 |
| 20260503025400 | 68 | 254 | 1.7 | 8.7 | 0.00 | 0.01 | 0.01 | 50 | 1013.3 |
| 20260503024900 | 68 | 333 | 2.6 | 8.7 | 0.00 | 0.01 | 0.01 | 50 | 1013.2 |
| 20260503024401 | 69 | 123 | 2.6 | 5.2 | 0.00 | 0.01 | 0.01 | 50 | 1013.2 |
| 20260503022858 | 69 | 296 | 3.5 | 8.7 | 0.00 | 0.01 | 0.01 | 50 | 1013.1 |
| 20260503021858 | 69 | 320 | 2.6 | 8.7 | 0.00 | 0.01 | 0.01 | 49 | 1013.1 |
| 20260503021358 | 69 | 141 | 2.6 | 8.7 | 0.00 | 0.01 | 0.01 | 49 | 1013.2 |
| 20260503020858 | 69 | 322 | 2.6 | 6.1 | 0.00 | 0.01 | 0.01 | 49 | 1013.1 |
| 20260503020354 | 70 | 44 | 2.6 | 6.1 | 0.00 | 0.01 | 0.01 | 49 | 1013.2 |
| 20260503015854 | 70 | 36 | 2.6 | 8.7 | 0.00 | 0.01 | 0.01 | 49 | 1013.2 |
| 20260503014852 | 70 | 304 | 3.5 | 8.7 | 0.00 | 0.01 | 0.01 | 49 | 1013.3 |
| 20260503014351 | 70 | 340 | 3.5 | 10.4 | 0.00 | 0.01 | 0.01 | 48 | 1013.3 |
| 20260503013351 | 70 | 329 | 3.5 | 9.6 | 0.00 | 0.01 | 0.01 | 49 | 1013.3 |
| 20260503012851 | 70 | 38 | 4.3 | 9.6 | 0.00 | 0.01 | 0.01 | 48 | 1013.3 |
| 20260503010847 | 70 | 348 | 4.3 | 12.2 | 0.00 | 0.01 | 0.01 | 48 | 1013.4 |
| 20260503010347 | 71 | 277 | 4.3 | 12.2 | 0.00 | 0.01 | 0.01 | 48 | 1013.4 |
| 20260503005848 | 71 | 11 | 3.5 | 12.2 | 0.00 | 0.01 | 0.01 | 49 | 1013.5 |
| 20260503004848 | 71 | 296 | 3.5 | 8.7 | 0.00 | 0.01 | 0.01 | 50 | 1013.5 |
| 20260503004348 | 71 | 341 | 3.5 | 11.3 | 0.00 | 0.01 | 0.01 | 49 | 1013.6 |
| 20260503003348 | 71 | 332 | 3.5 | 10.4 | 0.00 | 0.01 | 0.01 | 48 | 1013.7 |
| 20260503002848 | 71 | 293 | 3.5 | 9.6 | 0.00 | 0.01 | 0.01 | 49 | 1013.6 |
| 20260503002347 | 71 | 329 | 4.3 | 11.3 | 0.00 | 0.01 | 0.01 | 49 | 1013.6 |